Probability
0 0 0 0 0 0 0 0 0 0 0 0 0 0 0 0 0 0 0 0 0 0 0 0 0 0 0 0 0 0 0 0 0 0 0 0 0 0 0 0 0 0 0 0
0 0 0 0 0 0 0 0 0 0 0 0 0 0 0 0 0 0 0 0 0 0 0 0 0 0 0 0 0 0 0 0 0 0 0 0 0 0 0 0 0 0 0 0
0 0 0 0 0 0 0 0 0 0 0 0 0 0 0 0 0 0 0 0 0 0 0 0 0 0 0 0 0 0 0 0 0 0 0 0 0 0 0 0 0 0 0 0
0 0 0 0 0 0 0 0 0 0 0 0 0 0 0 0 0 0 0 0 0 0 0 0 0 0 0 0 0 0 0 0 0 0 0 0 0 0 0 0 0 0 0 0
0 0 0 0 0 0 0 0 0 0 0 0 0 0 0 0 0 0 0 0 0 0 0 0 0 0 0 0 0 0 0 0 0 0 0 0 0 0 0 0 0 0 0 0
0 0 0 0 0 0 0 0 0 0 0 0 0 0 0 0 0 0 0 0 0 0 0 0 0 0 0 0 0 0 0 0 0 0 0 0 0 0 0 0 0 0 0 0
0 0 0 0 0 0 0 0 0 0 0 0 0 0 0 0 0 0 0 0 0 0 0 0 0 0 0 0 0 0 0 0 0 0 0 0 0 0 0 0 0 0 0 0
0 0 0 0 0 0 0 0 0 0 0 0 0 0 0 0 0 0 0 0 0 0 0 0 0 0 0 0 0 0 0 0 0 0 0 0 0 0 0 0 0 0 0 0
0 0 0 0 0 0 0 0 0 0 0 0 0 0 0 0 0 0 0 0 0 0 0 0 0 0 0 0 0 0 0 0 0 0 0 0 0 0 0 0 0 0 0 0
0 0 0 0 0 0 0 0 0 0 0 0 0 0 0 0 0 0 0 0 0 0 0 0 0 0 0 0 0 0 0 0 0 0 0 0 0 0 0 0 0 0 0 0
0 0 0 0 0 0 0 0 0 0 0 0 0 0 0 0 0 0 0 0 0 0 0 0 0 0 0 0 0 0 0 0 0 0 0 0 0 0 0 0 0 0 0 0
0 0 0 0 0 0 0 0 0 0 0 0 0 0 0 0 0 0 0 0 0 0 0 0 0 0 0 0 0 0 0 0 0 0 0 0 0 0 0 0 0 0 0 0
0 0 0 0 0 0 0 0 0 0 0 0 0 0 0 0 0 0 0 0 0 0 0 0 0 0 0 0 0 0 0 0 0 0 0 0 0 0 0 0 0 0 0 0
0 0 0 0 0 0 0 0 0 0 0 0 0 0 0 0 0 0 0 0 0 0 0 0 0 0 0 0 0 0 0 0 0 0 0 0 0 0 0 0 0 0 0 0
0 0 0 0 0 0 0 0 0 0 0 0 0 0 0 0 0 0 0 0 0 0 0 0 0 0 0 0 0 0 0 0 0 0 0 0 0 0 0 0 0 0 0 0
0 0 0 0 0 0 0 0 0 0 0 0 0 0 0 0 0 0 0 0 0 0 0 0 0 0 0 0 0 0 0 0 0 0 0 0 0 0 0 0 0 0 0 0
0 0 0 0 0 0 0 0 0 0 0 0 0 0 0 0 0 0 0 0 0 0 0 0 0 0 0 0 0 0 0 0 0 0 0 0 0 0 0 0 0 0 0 0
0 0 0 0 0 0 0 0 0 0 0 0 0 0 0 0 0 0 0 0 0 0 0 0 0 0 0 0 0 0 0 0 0 0 0 0 0 0 0 0 0 0 0 0
0 0 0 0 0 0 0 0 0 0 0 0 0 0 0 0 0 0 0 0 0 0 0 0 0 0 0 0 0 0 0 0 0 0 0 0 0 0 0 0 0 0 0 0
0 0 0 0 0 0 0 0 0 0 0 0 0 0 0 0 0 0 0 0 0 0 0 0 0 0 0 0 0 0 0 0 0 0 0 0 0 0 0 0 0 0 0 0
0 0 0 0 0 0 0 0 0 0 0 0 0 0 0 0 0 0 0 0 0 0 0 0 0 0 0 0 0 0 0 0 0 0 0 0 0 0 0 0 0 0 0 0
0 0 0 0 0 0 0 0 0 0 0 0 0 0 0 0 0 0 0 0 0 0 0 0 0 0 0 0 0 0 0 0 0 0 0 0 0 0 0 0 0 0 0 0
0 0 0 0 0 0 0 0 0 0 0 0 0 0 0 0 0 0 0 0 0 0 0 0 0 0 0 0 0 0 0 0 0 0 0 0 0 0 0 0 0 0 0 0
0 0 0 0 0 0 0 0 0 0 0 0 0 0 0 0 0 0 0 0 0 0 0 0 0 0 0 0 0 0 0 0 0 0 0 0 0 0 0 0 0 0 0 0
0 0 0 0 0 0 0 0 0 0 0 0 0 0 0 0 0 0 0 0 0 0 0 0 0 0 0 0 0 0 0 0 0 0 0 0 0 0 0 0 0 0 0 0
0 0 0 0 0 0 0 0 0 0 0 0 0 0 0 0 0 0 0 0 0 0 0 0 0 0 0 0 0 0 0 0 0 0 0 0 0 0 0 0 0 0 0 0
Wind_Speed
4 5 3 6 6 5 3 2 2 4 4 2 6 9 9 6 6 8 8 8 9 9 7 9 9 9 8 7 7 6 6 4 3 2 1 1 1 1 1 1 1 1 1 1
5 2 5 6 5 5 3 2 2 4 4 4 6 9 9 7 9 9 10 10 11 8 6 8 8 8 8 8 7 6 6 5 4 2 2 2 1 1 1 1 1 1 1 2
5 4 5 5 5 5 3 4 4 3 3 3 2 7 5 3 5 5 7 9 11 13 13 11 9 8 8 8 8 7 6 6 5 3 2 1 2 2 2 2 2 2 2 2
2 3 5 5 6 6 3 5 4 3 0 3 1 3 7 3 2 5 6 7 9 10 10 10 10 9 9 8 7 7 7 6 5 4 3 2 2 1 2 2 2 3 2 2
3 4 5 4 5 5 6 4 3 2 1 2 2 2 7 1 3 6 7 7 9 11 11 12 11 10 9 8 7 7 7 6 5 4 4 3 2 2 1 1 2 2 2 2
2 3 4 4 3 4 2 3 4 4 4 2 3 2 5 4 6 6 5 6 8 9 10 10 8 7 6 6 6 7 7 5 5 4 4 4 3 2 1 1 1 2 2 2
3 2 2 2 1 1 4 6 5 6 5 5 3 1 6 6 4 6 7 7 7 8 9 9 9 9 8 8 7 7 7 6 5 4 4 4 4 3 3 2 1 1 1 2
2 3 2 2 4 3 2 7 6 2 3 5 5 1 6 4 1 2 5 6 7 8 9 10 11 10 10 9 8 8 8 6 5 5 4 3 4 2 2 2 2 2 2 2
3 2 2 2 2 5 3 2 5 6 0 2 5 4 5 3 2 2 4 5 7 8 9 10 10 10 10 10 9 9 9 6 6 5 4 3 3 3 2 2 1 1 2 2
4 1 2 1 3 2 4 5 5 4 2 2 5 4 4 4 4 4 4 6 8 8 8 8 9 10 10 9 8 8 8 8 6 6 5 4 3 3 3 2 1 1 1 1
3 4 2 2 1 2 1 2 5 4 4 4 2 7 7 7 7 7 8 8 9 9 9 9 9 9 9 7 7 7 7 6 6 6 5 4 3 3 3 2 2 1 1 1
2 5 0 4 5 3 4 4 6 4 2 4 3 8 7 5 6 6 7 7 7 8 8 8 9 8 8 8 8 8 8 7 7 6 5 5 4 3 3 2 2 1 1 1
3 6 4 7 8 6 2 1 3 5 4 3 3 8 6 4 5 5 5 5 5 5 5 6 7 8 9 9 9 8 8 8 7 6 6 5 4 4 4 3 2 2 1 1
4 4 5 5 6 4 4 4 1 4 3 3 6 8 8 7 6 5 3 3 2 3 4 5 7 8 9 9 9 9 8 8 8 7 6 6 6 5 5 4 3 2 2 1
5 2 1 4 4 2 2 4 3 3 5 6 6 4 7 6 4 3 2 1 1 0 2 5 6 7 8 8 8 8 8 8 8 8 7 7 6 5 4 4 3 3 2 2
4 1 3 5 5 4 4 5 3 2 2 2 1 3 5 4 2 4 4 3 1 2 3 4 5 6 8 9 9 9 9 9 8 9 9 7 6 6 5 5 4 3 3 2
2 2 2 4 6 4 4 4 1 3 3 1 1 4 5 4 5 4 4 5 3 4 4 4 5 7 8 9 10 11 11 9 9 9 8 8 7 7 6 6 5 4 4 3
3 2 2 1 3 1 6 2 2 5 6 5 3 4 5 2 0 2 4 4 6 5 5 5 5 5 6 7 7 9 8 9 10 9 9 9 8 8 7 6 6 5 4 3
6 5 3 2 1 4 5 5 3 2 4 7 6 7 9 6 4 5 7 6 5 5 5 5 5 5 4 5 6 7 8 9 10 10 10 10 10 9 8 7 7 5 4 4
4 4 4 3 2 3 5 9 6 5 3 8 7 7 8 8 5 6 10 8 8 7 6 5 4 2 2 4 4 6 8 9 11 12 12 11 10 10 10 9 7 5 5 5
4 4 2 2 3 4 5 8 6 5 4 6 6 6 5 3 3 7 9 8 8 7 7 6 5 4 4 3 3 6 7 10 12 10 9 9 10 11 10 8 6 5 5 4
1 0 0 1 1 4 7 6 4 2 3 4 5 5 5 5 7 8 9 9 9 10 8 7 6 6 5 2 3 5 8 9 7 7 9 10 10 10 9 8 7 6 6 5
1 2 3 4 4 2 3 3 1 1 2 3 4 5 5 6 7 8 8 8 8 8 8 7 6 7 6 4 4 7 8 5 5 6 9 9 10 9 8 9 9 6 6 5
3 2 2 1 1 1 2 3 4 3 3 3 4 4 5 5 7 8 8 8 9 8 8 7 7 8 8 7 6 7 6 5 5 7 8 7 9 8 7 7 7 7 7 6
4 2 1 2 3 2 3 4 4 4 4 5 5 5 5 5 6 6 7 8 8 8 8 7 7 8 9 9 8 7 5 4 6 6 7 7 7 8 8 6 6 7 7 8
4 4 4 5 5 3 4 4 4 4 5 6 6 6 6 5 6 6 7 7 7 8 8 8 8 9 9 10 9 8 6 5 6 6 6 6 5 6 6 6 3 1 3 8
Wind_Direction
111 92 147 186 173 159 158 146 267 265 254 225 248 260 258 233 210 196 193 191 187 188 176 164 158 153 147 149 147 148 146 153 133 110 109 91 313 300 304 289 296 316 317 328
75 150 196 169 159 160 169 152 275 284 254 216 253 266 263 228 212 200 192 191 188 180 163 165 160 158 159 161 158 155 156 157 153 155 171 186 199 243 258 289 322 325 319 326
137 200 184 168 171 173 196 201 212 242 318 309 291 313 300 262 210 201 194 186 183 178 175 173 169 171 166 167 168 162 163 160 161 153 122 71 46 19 357 331 315 305 298 303
150 209 177 180 188 177 216 231 217 224 343 291 157 290 298 290 198 198 194 179 182 180 175 174 173 175 176 176 170 159 160 161 162 151 138 138 150 204 245 252 271 293 294 292
211 186 163 183 205 179 213 226 230 241 189 320 321 156 292 320 203 218 211 190 185 182 179 181 181 181 177 170 164 159 154 159 164 160 153 150 163 212 253 273 296 306 305 302
203 179 167 195 211 189 174 47 29 38 64 334 267 153 272 246 218 216 214 196 184 181 182 183 179 168 165 162 156 153 155 166 170 162 158 163 173 188 217 290 306 307 304 304
1 328 224 156 72 358 78 74 32 12 12 273 291 153 255 263 233 197 190 193 184 178 174 173 171 171 169 166 163 159 160 171 177 166 172 177 179 182 196 228 234 251 280 286
106 302 259 179 165 167 141 129 141 170 248 293 342 328 280 297 277 155 161 167 169 176 180 180 181 177 175 173 168 165 167 173 176 174 183 185 180 180 207 215 209 225 239 253
147 264 282 200 158 132 116 136 163 135 91 339 326 322 322 352 34 129 153 159 179 186 188 187 184 181 179 177 177 175 172 173 178 179 177 184 185 186 200 210 208 227 250 260
141 139 306 316 51 32 142 141 88 90 100 343 322 305 258 253 244 236 215 206 206 200 194 191 187 186 185 184 181 175 172 175 178 178 180 183 190 193 190 181 200 229 262 285
98 114 333 15 181 210 103 88 101 108 143 143 294 281 240 227 227 224 230 224 214 206 199 194 193 191 185 179 176 176 176 174 176 181 182 175 188 191 183 186 218 228 255 280
69 109 41 283 281 210 163 170 142 138 228 164 174 269 276 247 241 228 234 237 226 213 203 196 190 182 181 183 183 182 181 181 184 182 177 182 187 181 180 201 229 225 226 258
76 90 51 350 345 355 359 260 149 135 123 151 172 266 292 309 289 267 247 248 241 220 206 197 189 188 190 190 188 187 186 188 185 177 176 178 183 185 193 206 217 208 198 219
92 99 147 189 233 259 291 294 229 129 157 217 224 253 300 311 301 302 286 258 235 213 200 197 201 203 200 196 192 190 193 188 181 177 178 184 191 195 198 200 199 198 186 174
75 86 249 241 254 263 276 288 277 218 202 201 240 249 285 291 284 295 311 342 26 263 225 213 213 213 208 204 200 196 194 189 183 178 185 196 197 195 193 193 196 196 192 191
47 70 11 329 321 340 329 315 302 282 256 222 265 302 294 305 2 22 16 17 354 281 255 237 228 220 213 211 206 199 197 193 183 184 194 195 188 187 192 196 195 194 201 199
354 79 47 300 314 11 341 315 31 38 6 89 97 283 318 13 38 36 19 6 324 285 271 251 237 229 224 217 207 202 200 188 185 191 194 191 188 190 197 197 189 196 201 194
195 117 132 282 9 286 247 287 100 89 41 30 28 347 351 335 233 53 25 2 335 316 298 279 261 252 240 223 213 204 190 185 190 194 195 193 189 193 194 190 195 200 195 197
177 157 144 136 217 284 313 333 326 136 41 4 8 2 355 340 10 360 354 344 323 308 290 271 254 245 248 232 213 195 192 191 194 199 200 197 191 191 191 196 202 198 190 198
75 105 123 134 166 234 289 317 324 93 42 348 4 4 358 18 17 317 326 331 329 328 320 311 300 284 282 261 209 190 199 196 204 206 204 198 192 191 194 199 199 192 189 198
15 30 103 170 213 249 305 321 25 73 284 325 351 359 6 7 264 285 318 334 335 331 326 330 325 298 273 266 201 205 206 212 214 209 201 195 194 195 195 193 189 185 186 185
218 103 348 125 203 264 335 21 56 240 282 331 349 352 349 329 325 331 335 336 339 340 338 337 330 312 298 274 213 224 227 228 218 202 197 197 196 196 192 184 186 180 176 178
181 184 192 188 208 252 10 65 11 0 340 335 340 338 341 336 331 332 331 331 331 332 331 328 319 314 313 292 243 237 244 234 214 202 204 201 195 195 185 181 183 178 178 182
302 7 92 346 272 334 24 33 15 11 352 329 330 330 339 333 331 331 334 333 329 329 326 326 324 319 312 302 280 260 257 225 205 211 208 200 192 191 187 184 183 182 185 187
260 323 358 273 282 321 355 358 344 341 341 338 335 335 335 333 328 325 324 326 324 320 319 319 316 308 306 305 294 287 273 229 215 214 210 201 196 189 186 185 188 191 196 192
225 202 199 232 236 224 269 297 316 335 338 336 337 339 337 332 322 321 317 315 318 317 316 315 312 308 305 306 299 294 277 238 221 219 212 204 194 188 179 170 158 146 189 198